Torna al catalogo

DELTA 4 R/B

AttivoGTO
NORAD 27555·ROCKET BODY·🇺🇸 United States

Lanciato Nov 20, 2002 da Cape Canaveral Space Force Station

Loading…

TLE

ObsoletoSource: Space-Track

Epoca: Sep 11, 2026, 18:55 UTC

1 27555U 02051B   26254.78876009  .00000047  00000-0  74319-3 0  9994
2 27555  14.1308 351.1532 7116816 306.7027   7.3793  2.35983855204944

Traccia DELTA 4 R/B in tempo reale con AllMySat

Download on the App Store